Location: Driftpile
(55.3500°N, 115.7667°W)
Time: 04:06:14
(UTC+00:00)

ISS - Pass Details

Date: 03 December 2021
Orbit: 413 x 423 km, 51.6° (Epoch: 20 January)

Event Time Altitude Azimuth Distance (km) Brightness Sun altitude
Rises 02:11:33 0° 274° (W) 2,383 1.5 -23.5°
Reaches altitude 10° 02:13:57 10° 259° (W) 1,513 0.1 -23.8°
Maximum altitude 02:16:38 22° 207° (SSW) 981 -1.6 -24.2°
Enters shadow 02:16:40 22° 206° (SSW) 981 -1.6 -24.2°
